Time,TemperatureF,DewpointF,PressureIn,WindDirection,WindDirectionDegrees,WindSpeedMPH,WindSpeedGustMPH,Humidity,HourlyPrecipIn,Conditions,Clouds,dailyrainin,SoftwareType,DateUTC
2013-04-06 00:04:00,47.7,38.0,29.32,NE,49,0.0,0.0,69,0.00,,-RA,0.00,VWS V14.00,2013-04-06 07:04:00,
2013-04-06 00:09:00,47.7,38.0,29.32,NE,49,2.7,2.7,69,0.00,,-RA,0.00,VWS V14.00,2013-04-06 07:09:00,
2013-04-06 00:14:00,47.7,38.0,29.32,NE,49,0.0,0.0,69,0.00,,-RA,0.00,VWS V14.00,2013-04-06 07:14:00,
2013-04-06 00:19:00,47.7,38.0,29.32,SE,142,0.0,0.0,69,0.00,,-RA,0.00,VWS V14.00,2013-04-06 07:19:00,
2013-04-06 00:24:00,47.7,38.0,29.32,SE,128,0.0,0.0,69,0.00,,-RA,0.00,VWS V14.00,2013-04-06 07:24:00,
2013-04-06 00:30:00,47.7,38.0,29.32,SE,129,2.2,2.7,69,0.00,,-RA,0.00,VWS V14.00,2013-04-06 07:30:00,
2013-04-06 00:36:00,47.5,37.8,29.32,East,79,0.0,2.2,69,0.00,,-RA,0.00,VWS V14.00,2013-04-06 07:36:00,
2013-04-06 00:41:00,47.7,38.0,29.32,ESE,102,0.0,0.0,69,0.00,,-RA,0.00,VWS V14.00,2013-04-06 07:41:00,
2013-04-06 00:47:00,47.7,38.0,29.32,East,87,0.0,0.0,69,0.00,,-RA,0.00,VWS V14.00,2013-04-06 07:47:00,
2013-04-06 00:53:00,47.7,38.0,29.32,NE,54,2.7,2.7,69,0.00,,-RA,0.00,VWS V14.00,2013-04-06 07:53:00,
2013-04-06 00:59:00,47.7,38.0,29.32,East,99,0.0,3.1,69,0.00,,-RA,0.00,VWS V14.00,2013-04-06 07:59:00,
2013-04-06 01:04:00,47.8,38.2,29.32,East,90,2.2,3.1,69,0.00,,-RA,0.00,VWS V14.00,2013-04-06 08:04:00,
2013-04-06 01:10:00,47.8,38.2,29.32,NE,39,2.7,2.7,69,0.00,,-RA,0.00,VWS V14.00,2013-04-06 08:10:00,
2013-04-06 01:15:00,48.0,38.3,29.32,SE,126,2.2,3.6,69,0.00,,-RA,0.00,VWS V14.00,2013-04-06 08:15:00,
2013-04-06 01:22:00,48.0,38.3,29.32,NE,41,0.0,2.7,69,0.00,,-RA,0.00,VWS V14.00,2013-04-06 08:22:00,
2013-04-06 01:28:00,48.0,38.3,29.32,ENE,75,2.7,2.7,69,0.00,,-RA,0.00,VWS V14.00,2013-04-06 08:28:00,
2013-04-06 01:34:00,48.0,38.7,29.32,SSE,148,0.0,0.0,70,0.00,,-RA,0.00,VWS V14.00,2013-04-06 08:34:00,
2013-04-06 01:39:00,48.0,38.7,29.32,East,100,2.7,2.7,70,0.00,,-RA,0.00,VWS V14.00,2013-04-06 08:39:00,
2013-04-06 01:45:00,48.2,38.5,29.32,SE,133,2.7,3.6,69,0.00,,-RA,0.00,VWS V14.00,2013-04-06 08:45:00,
2013-04-06 01:50:00,48.2,38.5,29.32,NE,42,3.1,3.1,69,0.00,,-RA,0.00,VWS V14.00,2013-04-06 08:50:00,
2013-04-06 01:56:00,48.4,38.7,29.32,SE,126,2.7,3.1,69,0.00,,-RA,0.00,VWS V14.00,2013-04-06 08:56:00,
2013-04-06 02:01:00,48.4,38.7,29.32,SW,222,3.6,6.3,69,0.00,,-RA,0.00,VWS V14.00,2013-04-06 09:01:00,
2013-04-06 02:07:00,48.6,38.9,29.32,SE,144,2.2,4.0,69,0.00,,-RA,0.00,VWS V14.00,2013-04-06 09:07:00,
2013-04-06 02:13:00,48.7,39.0,29.32,SSE,148,0.0,2.7,69,0.00,,-RA,0.00,VWS V14.00,2013-04-06 09:13:00,
2013-04-06 02:18:00,48.7,39.0,29.32,ESE,119,0.0,2.2,69,0.00,,-RA,0.00,VWS V14.00,2013-04-06 09:18:00,
2013-04-06 02:23:00,48.7,39.0,29.32,ESE,122,4.0,4.5,69,0.00,,-RA,0.00,VWS V14.00,2013-04-06 09:23:00,
2013-04-06 02:28:00,48.7,39.0,29.32,SE,136,2.2,2.2,69,0.00,,-RA,0.00,VWS V14.00,2013-04-06 09:28:00,
2013-04-06 02:33:00,48.7,39.0,29.32,SSE,159,0.0,3.6,69,0.00,,-RA,0.00,VWS V14.00,2013-04-06 09:33:00,
2013-04-06 02:38:00,48.6,38.5,29.32,SW,233,3.1,3.1,68,0.00,,-RA,0.00,VWS V14.00,2013-04-06 09:38:00,
2013-04-06 02:44:00,48.6,38.5,29.32,SE,125,3.6,6.3,68,0.04,,-RA,0.04,VWS V14.00,2013-04-06 09:44:00,
2013-04-06 02:49:00,48.4,38.3,29.32,SSE,165,2.2,7.6,68,0.04,,-RA,0.04,VWS V14.00,2013-04-06 09:49:00,
2013-04-06 02:55:00,48.2,38.2,29.32,SSE,160,5.4,5.4,68,0.04,,-RA,0.04,VWS V14.00,2013-04-06 09:55:00,
2013-04-06 03:00:00,48.0,38.0,29.32,SSE,161,5.4,6.3,68,0.04,,-RA,0.04,VWS V14.00,2013-04-06 10:00:00,
2013-04-06 03:05:00,47.8,37.8,29.32,SSE,151,4.0,4.0,68,0.04,,-RA,0.04,VWS V14.00,2013-04-06 10:05:00,
2013-04-06 03:10:00,47.7,37.3,29.32,SSE,157,3.6,7.6,67,0.04,,-RA,0.04,VWS V14.00,2013-04-06 10:10:00,
2013-04-06 03:16:00,47.7,37.3,29.32,SSW,200,0.0,2.7,67,0.04,,-RA,0.04,VWS V14.00,2013-04-06 10:16:00,
2013-04-06 03:21:00,47.7,37.3,29.32,SSE,149,3.1,3.1,67,0.04,,-RA,0.04,VWS V14.00,2013-04-06 10:21:00,
2013-04-06 03:27:00,47.7,37.3,29.32,SSE,155,0.0,0.0,67,0.04,,-RA,0.04,VWS V14.00,2013-04-06 10:27:00,
2013-04-06 03:32:00,47.5,37.1,29.32,South,176,3.1,3.6,67,0.04,,-RA,0.04,VWS V14.00,2013-04-06 10:32:00,
2013-04-06 03:38:00,47.5,37.1,29.32,SE,132,5.8,5.8,67,0.04,,-RA,0.04,VWS V14.00,2013-04-06 10:38:00,
2013-04-06 03:44:00,47.5,37.1,29.32,SE,140,5.4,5.4,67,0.00,,-RA,0.04,VWS V14.00,2013-04-06 10:44:00,
2013-04-06 03:49:00,47.5,37.1,29.32,SSE,165,2.2,2.7,67,0.00,,-RA,0.04,VWS V14.00,2013-04-06 10:49:00,
2013-04-06 03:54:00,47.3,36.9,29.32,SSE,155,2.7,3.6,67,0.00,,-RA,0.04,VWS V14.00,2013-04-06 10:54:00,
2013-04-06 04:00:00,47.3,36.9,29.32,SSE,151,2.7,3.6,67,0.00,,-RA,0.04,VWS V14.00,2013-04-06 11:00:00,
2013-04-06 04:07:00,47.3,36.9,29.32,SE,127,0.0,2.2,67,0.00,,BKN035,0.04,VWS V14.00,2013-04-06 11:07:00,
2013-04-06 04:13:00,47.5,37.1,29.32,SSE,166,4.0,5.4,67,0.00,,BKN035,0.04,VWS V14.00,2013-04-06 11:13:00,
2013-04-06 04:19:00,47.5,37.5,29.32,ESE,109,2.7,2.7,68,0.00,,BKN035,0.04,VWS V14.00,2013-04-06 11:19:00,
2013-04-06 04:24:00,47.5,37.5,29.32,ESE,122,0.0,0.0,68,0.00,,BKN035,0.04,VWS V14.00,2013-04-06 11:24:00,
2013-04-06 04:30:00,47.5,37.5,29.32,NE,47,0.0,0.0,68,0.00,,BKN035,0.04,VWS V14.00,2013-04-06 11:30:00,
2013-04-06 04:36:00,47.5,37.5,29.32,East,80,2.7,3.6,68,0.00,,BKN035,0.04,VWS V14.00,2013-04-06 11:36:00,
2013-04-06 04:41:00,47.5,37.5,29.32,ESE,118,0.0,0.0,68,0.00,,BKN035,0.04,VWS V14.00,2013-04-06 11:41:00,
2013-04-06 04:47:00,47.5,37.5,29.32,East,99,2.2,4.0,68,0.00,,BKN035,0.04,VWS V14.00,2013-04-06 11:47:00,
2013-04-06 04:52:00,47.5,37.5,29.32,ENE,72,2.2,4.0,68,0.00,,BKN035,0.04,VWS V14.00,2013-04-06 11:52:00,
2013-04-06 04:58:00,47.5,37.5,29.32,SSE,153,0.0,0.0,68,0.00,,BKN035,0.04,VWS V14.00,2013-04-06 11:58:00,
2013-04-06 05:04:00,47.5,37.5,29.32,SE,128,3.1,4.0,68,0.00,,OVC038,0.04,VWS V14.00,2013-04-06 12:04:00,
2013-04-06 05:09:00,47.5,37.5,29.32,SE,141,3.6,4.9,68,0.00,,OVC038,0.04,VWS V14.00,2013-04-06 12:09:00,
2013-04-06 05:14:00,47.5,37.5,29.32,SSE,160,0.0,4.5,68,0.00,,OVC038,0.04,VWS V14.00,2013-04-06 12:14:00,
2013-04-06 05:20:00,47.3,37.3,29.32,SE,139,0.0,4.0,68,0.00,,OVC038,0.04,VWS V14.00,2013-04-06 12:20:00,
2013-04-06 05:26:00,47.3,37.3,29.32,South,173,3.6,5.4,68,0.00,,OVC038,0.04,VWS V14.00,2013-04-06 12:26:00,
2013-04-06 05:31:00,47.3,37.3,29.32,WNW,289,5.4,6.3,68,0.00,,OVC038,0.04,VWS V14.00,2013-04-06 12:31:00,
2013-04-06 05:37:00,46.6,35.5,29.32,West,281,4.0,4.0,65,0.00,,OVC038,0.04,VWS V14.00,2013-04-06 12:37:00,
2013-04-06 05:42:00,46.0,34.6,29.32,WNW,301,4.0,4.0,64,0.00,,OVC038,0.04,VWS V14.00,2013-04-06 12:42:00,
2013-04-06 05:47:00,45.5,33.7,29.32,WSW,252,4.0,4.0,63,0.00,,OVC038,0.04,VWS V14.00,2013-04-06 12:47:00,
2013-04-06 05:53:00,45.3,33.5,29.32,WSW,258,2.7,3.1,63,0.00,,OVC038,0.04,VWS V14.00,2013-04-06 12:53:00,
2013-04-06 05:58:00,45.1,33.3,29.32,WSW,257,2.7,5.8,63,0.04,,OVC038,0.08,VWS V14.00,2013-04-06 12:58:00,
2013-04-06 06:04:00,45.0,33.1,29.32,West,277,0.0,2.7,63,0.04,,-RA,0.08,VWS V14.00,2013-04-06 13:04:00,
2013-04-06 06:10:00,44.4,33.0,29.32,SSW,211,3.1,3.1,64,0.12,,-RA,0.16,VWS V14.00,2013-04-06 13:10:00,
2013-04-06 06:15:00,44.1,32.7,29.32,SW,220,3.1,3.1,64,0.16,,-RA,0.20,VWS V14.00,2013-04-06 13:15:00,
2013-04-06 06:21:00,44.1,33.1,29.32,South,170,4.0,5.8,65,0.16,,-RA,0.20,VWS V14.00,2013-04-06 13:21:00,
2013-04-06 06:26:00,44.2,33.2,29.32,SSW,198,0.0,0.0,65,0.16,,-RA,0.20,VWS V14.00,2013-04-06 13:26:00,
2013-04-06 06:32:00,44.2,33.6,29.32,WSW,237,0.0,2.7,66,0.16,,-RA,0.20,VWS V14.00,2013-04-06 13:32:00,
2013-04-06 06:37:00,44.2,33.6,29.32,SSW,203,0.0,7.2,66,0.16,,-RA,0.20,VWS V14.00,2013-04-06 13:37:00,
2013-04-06 06:43:00,44.2,34.0,29.32,South,170,8.7,8.7,67,0.16,,-RA,0.20,VWS V14.00,2013-04-06 13:43:00,
2013-04-06 06:50:00,44.2,34.0,29.32,SE,135,3.6,3.6,67,0.20,,-RA,0.24,VWS V14.00,2013-04-06 13:50:00,
2013-04-06 06:55:00,44.2,34.0,29.32,SE,143,0.0,0.0,67,0.20,,-RA,0.24,VWS V14.00,2013-04-06 13:55:00,
2013-04-06 07:00:00,44.2,34.0,29.32,SE,127,0.0,0.0,67,0.16,,-RA,0.24,VWS V14.00,2013-04-06 14:00:00,
2013-04-06 07:06:00,44.1,33.8,29.32,SSE,147,5.8,5.8,67,0.16,,-RA,0.24,VWS V14.00,2013-04-06 14:06:00,
2013-04-06 07:12:00,44.1,33.8,29.32,SE,138,0.0,4.0,67,0.08,,-RA,0.24,VWS V14.00,2013-04-06 14:12:00,
2013-04-06 07:18:00,44.2,34.4,29.32,South,169,0.0,0.0,68,0.04,,-RA,0.24,VWS V14.00,2013-04-06 14:18:00,
2013-04-06 07:23:00,44.2,34.4,29.32,East,95,0.0,0.0,68,0.04,,-RA,0.24,VWS V14.00,2013-04-06 14:23:00,
2013-04-06 07:29:00,44.2,34.4,29.32,SW,226,4.0,5.4,68,0.04,,-RA,0.24,VWS V14.00,2013-04-06 14:29:00,
2013-04-06 07:34:00,44.4,34.5,29.32,ESE,110,0.0,0.0,68,0.04,,-RA,0.24,VWS V14.00,2013-04-06 14:34:00,
2013-04-06 07:39:00,44.4,34.5,29.32,SSE,147,5.8,5.8,68,0.04,,-RA,0.24,VWS V14.00,2013-04-06 14:39:00,
2013-04-06 07:45:00,44.6,34.7,29.32,SE,133,0.0,3.6,68,0.04,,-RA,0.24,VWS V14.00,2013-04-06 14:45:00,
2013-04-06 07:50:00,44.6,34.7,29.32,SSE,156,2.2,3.1,68,0.00,,-RA,0.24,VWS V14.00,2013-04-06 14:50:00,
2013-04-06 07:56:00,44.6,34.7,29.32,SW,217,4.0,6.3,68,0.00,,-RA,0.24,VWS V14.00,2013-04-06 14:56:00,
2013-04-06 08:01:00,44.6,34.7,29.32,SSE,166,2.7,6.7,68,0.00,,-RA,0.24,VWS V14.00,2013-04-06 15:01:00,
2013-04-06 08:06:00,44.8,34.9,29.32,SSE,147,4.9,4.9,68,0.00,,BKN024,0.24,VWS V14.00,2013-04-06 15:06:00,
2013-04-06 08:12:00,44.8,34.9,29.32,ESE,123,4.0,4.0,68,0.00,,BKN024,0.24,VWS V14.00,2013-04-06 15:12:00,
2013-04-06 08:18:00,45.0,35.0,29.32,WSW,246,2.7,4.0,68,0.00,,BKN024,0.24,VWS V14.00,2013-04-06 15:18:00,
2013-04-06 08:23:00,45.0,35.0,29.32,SE,140,6.3,6.3,68,0.00,,BKN024,0.24,VWS V14.00,2013-04-06 15:23:00,
2013-04-06 08:30:00,45.1,35.6,29.32,ESE,120,0.0,2.7,69,0.00,,BKN024,0.24,VWS V14.00,2013-04-06 15:30:00,
2013-04-06 08:35:00,45.1,35.6,29.32,SSE,149,3.6,3.6,69,0.00,,BKN024,0.24,VWS V14.00,2013-04-06 15:35:00,
2013-04-06 08:41:00,45.1,35.6,29.32,North,357,0.0,3.6,69,0.00,,BKN024,0.24,VWS V14.00,2013-04-06 15:41:00,
2013-04-06 08:46:00,45.3,35.8,29.32,ESE,103,3.1,3.1,69,0.00,,BKN024,0.24,VWS V14.00,2013-04-06 15:46:00,
2013-04-06 08:52:00,45.7,36.1,29.32,SSW,209,5.4,5.4,69,0.00,,BKN024,0.24,VWS V14.00,2013-04-06 15:52:00,
2013-04-06 08:58:00,46.0,36.5,29.32,West,267,4.0,4.0,69,0.00,,BKN024,0.24,VWS V14.00,2013-04-06 15:58:00,
2013-04-06 09:03:00,46.4,36.8,29.32,SE,146,3.6,3.6,69,0.00,,BKN090,0.24,VWS V14.00,2013-04-06 16:03:00,
2013-04-06 09:08:00,46.6,37.0,29.32,SE,129,0.0,0.0,69,0.00,,BKN090,0.24,VWS V14.00,2013-04-06 16:08:00,
2013-04-06 09:15:00,46.9,37.3,29.32,SE,135,4.0,4.0,69,0.00,,BKN090,0.24,VWS V14.00,2013-04-06 16:15:00,
2013-04-06 09:21:00,47.1,37.5,29.32,ESE,108,2.7,2.7,69,0.00,,BKN090,0.24,VWS V14.00,2013-04-06 16:21:00,
2013-04-06 09:26:00,47.3,37.7,29.32,SSE,155,2.7,6.3,69,0.00,,BKN090,0.24,VWS V14.00,2013-04-06 16:26:00,
2013-04-06 09:31:00,47.5,37.8,29.32,ESE,115,3.1,4.0,69,0.00,,BKN090,0.24,VWS V14.00,2013-04-06 16:31:00,
2013-04-06 09:36:00,48.2,38.2,29.32,ESE,113,0.0,3.6,68,0.00,,BKN090,0.24,VWS V14.00,2013-04-06 16:36:00,
2013-04-06 09:42:00,48.7,38.7,29.32,South,174,0.0,0.0,68,0.00,,BKN090,0.24,VWS V14.00,2013-04-06 16:42:00,
2013-04-06 09:48:00,48.7,38.7,29.32,SSE,167,2.7,3.1,68,0.00,,BKN090,0.24,VWS V14.00,2013-04-06 16:48:00,
2013-04-06 09:53:00,48.7,38.7,29.32,SSE,152,2.2,4.0,68,0.00,,BKN090,0.24,VWS V14.00,2013-04-06 16:53:00,
2013-04-06 09:58:00,48.9,38.8,29.32,South,171,6.3,6.3,68,0.00,,BKN090,0.24,VWS V14.00,2013-04-06 16:58:00,
2013-04-06 10:07:00,49.3,39.2,29.32,SE,136,6.3,6.3,68,0.00,,OVC023,0.24,VWS V14.00,2013-04-06 17:07:00,
2013-04-06 10:13:00,49.1,38.6,29.32,South,191,5.4,5.8,67,0.00,,OVC023,0.24,VWS V14.00,2013-04-06 17:13:00,
2013-04-06 10:18:00,48.9,38.5,29.32,East,90,0.0,3.6,67,0.00,,OVC023,0.24,VWS V14.00,2013-04-06 17:18:00,
2013-04-06 10:25:00,48.7,37.9,29.32,SW,232,0.0,2.2,66,0.00,,OVC023,0.24,VWS V14.00,2013-04-06 17:25:00,
2013-04-06 10:30:00,48.9,37.7,29.32,SSE,147,3.6,4.0,65,0.00,,OVC023,0.24,VWS V14.00,2013-04-06 17:30:00,
2013-04-06 10:35:00,49.1,37.9,29.32,SSE,167,2.2,6.3,65,0.00,,OVC023,0.24,VWS V14.00,2013-04-06 17:35:00,
2013-04-06 10:42:00,49.5,37.8,29.32,South,170,5.4,5.4,64,0.00,,OVC023,0.24,VWS V14.00,2013-04-06 17:42:00,
2013-04-06 10:48:00,49.1,37.1,29.32,WSW,258,0.0,0.0,63,0.00,,OVC023,0.24,VWS V14.00,2013-04-06 17:48:00,
2013-04-06 10:53:00,48.9,36.5,29.32,South,172,3.6,5.4,62,0.00,,OVC023,0.24,VWS V14.00,2013-04-06 17:53:00,
2013-04-06 11:00:00,48.7,35.9,29.32,SE,141,3.1,4.0,61,0.00,,OVC023,0.24,VWS V14.00,2013-04-06 18:00:00,
2013-04-06 11:06:00,48.9,35.7,29.32,SSE,168,2.2,2.7,60,0.00,,BKN030,0.24,VWS V14.00,2013-04-06 18:06:00,
2013-04-06 11:12:00,49.1,35.4,29.32,SE,146,2.7,5.4,59,0.00,,BKN030,0.24,VWS V14.00,2013-04-06 18:12:00,
2013-04-06 11:17:00,49.1,35.0,29.32,ESE,105,0.0,0.0,58,0.00,,BKN030,0.24,VWS V14.00,2013-04-06 18:17:00,
2013-04-06 11:23:00,49.1,34.5,29.32,SE,146,2.7,5.8,57,0.00,,BKN030,0.24,VWS V14.00,2013-04-06 18:23:00,
2013-04-06 11:30:00,49.1,34.5,29.32,SSW,195,3.1,4.0,57,0.00,,BKN030,0.24,VWS V14.00,2013-04-06 18:30:00,
2013-04-06 11:35:00,49.1,34.5,29.32,SSE,153,0.0,4.0,57,0.00,,BKN030,0.24,VWS V14.00,2013-04-06 18:35:00,
2013-04-06 11:42:00,49.1,34.5,29.32,ESE,122,0.0,4.0,57,0.00,,BKN030,0.24,VWS V14.00,2013-04-06 18:42:00,
2013-04-06 11:47:00,49.5,34.9,29.32,South,172,5.4,5.4,57,0.00,,BKN030,0.24,VWS V14.00,2013-04-06 18:47:00,
2013-04-06 11:52:00,49.5,34.9,29.32,SW,231,2.2,3.6,57,0.00,,BKN030,0.24,VWS V14.00,2013-04-06 18:52:00,
2013-04-06 11:59:00,49.6,35.0,29.32,SE,136,4.0,4.0,57,0.00,,BKN030,0.24,VWS V14.00,2013-04-06 18:59:00,
2013-04-06 12:05:00,50.0,35.4,29.32,South,178,6.3,6.3,57,0.00,,BKN065,0.24,VWS V14.00,2013-04-06 19:05:00,
2013-04-06 12:11:00,50.2,35.5,29.32,West,263,2.7,4.0,57,0.00,,BKN065,0.24,VWS V14.00,2013-04-06 19:11:00,
2013-04-06 12:16:00,50.5,35.9,29.32,SE,132,0.0,3.1,57,0.00,,BKN065,0.24,VWS V14.00,2013-04-06 19:16:00,
2013-04-06 12:21:00,50.9,36.2,29.32,East,92,2.2,2.7,57,0.00,,BKN065,0.24,VWS V14.00,2013-04-06 19:21:00,
2013-04-06 12:26:00,51.3,36.6,29.32,SW,234,0.0,3.6,57,0.00,,BKN065,0.24,VWS V14.00,2013-04-06 19:26:00,
2013-04-06 12:32:00,51.4,35.8,29.32,SE,140,0.0,5.4,55,0.00,,BKN065,0.24,VWS V14.00,2013-04-06 19:32:00,
2013-04-06 12:37:00,51.8,35.7,29.32,WSW,250,0.0,3.1,54,0.00,,BKN065,0.24,VWS V14.00,2013-04-06 19:37:00,
2013-04-06 12:43:00,52.2,35.1,29.32,East,88,0.0,3.1,52,0.00,,BKN065,0.24,VWS V14.00,2013-04-06 19:43:00,
2013-04-06 12:48:00,52.0,32.9,29.32,North,6,0.0,2.7,48,0.00,,BKN065,0.24,VWS V14.00,2013-04-06 19:48:00,
2013-04-06 12:53:00,51.6,32.1,29.32,SSE,152,0.0,3.6,47,0.00,,BKN065,0.24,VWS V14.00,2013-04-06 19:53:00,
2013-04-06 12:59:00,51.1,31.6,29.32,South,178,2.2,4.9,47,0.00,,BKN065,0.24,VWS V14.00,2013-04-06 19:59:00,
2013-04-06 13:05:00,50.7,30.7,29.32,SW,214,2.7,3.1,46,0.00,,-RA,0.24,VWS V14.00,2013-04-06 20:05:00,
2013-04-06 13:11:00,50.2,30.2,29.32,West,277,3.1,3.1,46,0.00,,-RA,0.24,VWS V14.00,2013-04-06 20:11:00,
2013-04-06 13:16:00,50.0,30.0,29.32,WNW,300,2.2,3.1,46,0.00,,-RA,0.24,VWS V14.00,2013-04-06 20:16:00,
2013-04-06 13:21:00,49.6,30.2,29.32,SE,144,2.7,2.7,47,0.00,,-RA,0.24,VWS V14.00,2013-04-06 20:21:00,
2013-04-06 13:26:00,49.3,29.9,29.32,WSW,253,2.7,2.7,47,0.00,,-RA,0.24,VWS V14.00,2013-04-06 20:26:00,
2013-04-06 13:31:00,48.7,29.4,29.32,SW,217,3.6,5.8,47,0.00,,-RA,0.24,VWS V14.00,2013-04-06 20:31:00,
2013-04-06 13:37:00,47.7,28.4,29.32,WSW,237,2.7,4.0,47,0.00,,-RA,0.24,VWS V14.00,2013-04-06 20:37:00,
2013-04-06 13:43:00,46.8,28.1,29.32,WSW,253,2.2,4.0,48,0.00,,-RA,0.24,VWS V14.00,2013-04-06 20:43:00,
2013-04-06 13:50:00,46.4,28.3,29.32,NW,309,5.8,5.8,49,0.00,,-RA,0.24,VWS V14.00,2013-04-06 20:50:00,
2013-04-06 13:55:00,46.2,29.1,29.32,SW,231,4.9,4.9,51,0.00,,-RA,0.24,VWS V14.00,2013-04-06 20:55:00,
2013-04-06 14:01:00,45.9,29.2,29.32,West,272,3.6,4.9,52,0.00,,-RA,0.24,VWS V14.00,2013-04-06 21:01:00,
2013-04-06 14:08:00,45.7,29.5,29.32,NW,311,3.6,3.6,53,0.00,,-RA,0.24,VWS V14.00,2013-04-06 21:08:00,
2013-04-06 14:14:00,45.5,29.8,29.32,WSW,242,0.0,0.0,54,0.04,,-RA,0.28,VWS V14.00,2013-04-06 21:14:00,
2013-04-06 14:20:00,45.5,29.8,29.32,WSW,243,0.0,0.0,54,0.04,,-RA,0.28,VWS V14.00,2013-04-06 21:20:00,
2013-04-06 14:25:00,45.9,30.6,29.32,NE,54,0.0,0.0,55,0.04,,-RA,0.28,VWS V14.00,2013-04-06 21:25:00,
2013-04-06 14:31:00,47.3,32.4,29.32,NE,54,0.0,0.0,56,0.04,,-RA,0.28,VWS V14.00,2013-04-06 21:31:00,
2013-04-06 14:36:00,48.6,34.0,29.32,NE,45,2.7,2.7,57,0.04,,-RA,0.28,VWS V14.00,2013-04-06 21:36:00,
2013-04-06 14:42:00,49.3,35.1,29.32,ESE,123,3.1,4.0,58,0.04,,-RA,0.28,VWS V14.00,2013-04-06 21:42:00,
2013-04-06 14:47:00,49.3,35.1,29.32,SE,144,2.7,3.6,58,0.04,,-RA,0.28,VWS V14.00,2013-04-06 21:47:00,
2013-04-06 14:53:00,49.3,35.1,29.32,SE,128,2.2,2.2,58,0.04,,-RA,0.28,VWS V14.00,2013-04-06 21:53:00,
2013-04-06 14:58:00,48.9,34.8,29.32,SSE,155,2.7,3.6,58,0.04,,-RA,0.28,VWS V14.00,2013-04-06 21:58:00,
2013-04-06 15:04:00,48.6,34.0,29.32,SW,233,2.7,2.7,57,0.04,,-RA,0.28,VWS V14.00,2013-04-06 22:04:00,
2013-04-06 15:10:00,48.0,33.5,29.32,ESE,104,5.4,5.4,57,0.08,,-RA,0.31,VWS V14.00,2013-04-06 22:10:00,
2013-04-06 15:15:00,47.7,33.2,29.32,SE,144,0.0,3.6,57,0.04,,-RA,0.31,VWS V14.00,2013-04-06 22:15:00,
2013-04-06 15:22:00,47.7,33.6,29.32,SE,145,0.0,0.0,58,0.04,,-RA,0.31,VWS V14.00,2013-04-06 22:22:00,
2013-04-06 15:27:00,47.7,33.6,29.32,SE,131,2.2,3.1,58,0.04,,-RA,0.31,VWS V14.00,2013-04-06 22:27:00,
2013-04-06 15:32:00,47.7,33.6,29.32,SSW,208,0.0,2.2,58,0.04,,-RA,0.31,VWS V14.00,2013-04-06 22:32:00,
2013-04-06 15:38:00,47.8,34.2,29.32,SW,234,2.7,3.1,59,0.04,,-RA,0.31,VWS V14.00,2013-04-06 22:38:00,
2013-04-06 15:43:00,48.0,34.4,29.32,SSE,168,2.7,2.7,59,0.04,,-RA,0.31,VWS V14.00,2013-04-06 22:43:00,
2013-04-06 15:49:00,48.2,34.6,29.32,SE,124,4.0,4.0,59,0.04,,-RA,0.31,VWS V14.00,2013-04-06 22:49:00,
2013-04-06 15:54:00,48.4,34.7,29.32,SE,145,2.7,3.6,59,0.04,,-RA,0.31,VWS V14.00,2013-04-06 22:54:00,
2013-04-06 16:00:00,48.6,34.9,29.32,SE,125,0.0,3.1,59,0.04,,-RA,0.31,VWS V14.00,2013-04-06 23:00:00,
2013-04-06 16:06:00,48.6,35.3,29.32,SSE,159,0.0,0.0,60,0.04,,SCT110,0.31,VWS V14.00,2013-04-06 23:06:00,
2013-04-06 16:11:00,48.7,35.5,29.32,SSE,159,0.0,0.0,60,0.00,,SCT110,0.31,VWS V14.00,2013-04-06 23:11:00,
2013-04-06 16:17:00,48.6,34.9,29.32,SE,125,0.0,0.0,59,0.00,,SCT110,0.31,VWS V14.00,2013-04-06 23:17:00,
2013-04-06 16:22:00,48.6,35.3,29.32,East,92,3.6,3.6,60,0.00,,SCT110,0.31,VWS V14.00,2013-04-06 23:22:00,
2013-04-06 16:28:00,48.6,35.3,29.32,ESE,103,0.0,0.0,60,0.00,,SCT110,0.31,VWS V14.00,2013-04-06 23:28:00,
2013-04-06 16:34:00,48.9,35.7,29.32,ESE,103,0.0,0.0,60,0.00,,SCT110,0.31,VWS V14.00,2013-04-06 23:34:00,
2013-04-06 16:40:00,48.9,35.7,29.32,NE,56,0.0,0.0,60,0.00,,SCT110,0.31,VWS V14.00,2013-04-06 23:40:00,
2013-04-06 16:47:00,48.9,35.7,29.32,NE,56,0.0,0.0,60,0.00,,SCT110,0.31,VWS V14.00,2013-04-06 23:47:00,
2013-04-06 16:53:00,48.9,35.7,29.32,NE,56,0.0,0.0,60,0.00,,SCT110,0.31,VWS V14.00,2013-04-06 23:53:00,
2013-04-06 16:58:00,49.1,35.8,29.32,NE,56,0.0,0.0,60,0.00,,SCT110,0.31,VWS V14.00,2013-04-06 23:58:00,
2013-04-06 17:03:00,49.5,36.2,29.32,NNE,29,0.0,2.7,60,0.00,,BKN050,0.31,VWS V14.00,2013-04-07 00:03:00,
2013-04-06 17:08:00,49.6,36.3,29.32,SSE,153,0.0,2.7,60,0.00,,BKN050,0.31,VWS V14.00,2013-04-07 00:08:00,
2013-04-06 17:13:00,49.8,36.5,29.32,SSE,156,0.0,0.0,60,0.00,,BKN050,0.31,VWS V14.00,2013-04-07 00:13:00,
2013-04-06 17:19:00,49.8,36.5,29.32,SE,135,0.0,0.0,60,0.00,,BKN050,0.31,VWS V14.00,2013-04-07 00:19:00,
2013-04-06 17:24:00,50.0,36.2,29.32,SE,136,0.0,3.6,59,0.00,,BKN050,0.31,VWS V14.00,2013-04-07 00:24:00,
2013-04-06 17:30:00,49.8,36.1,29.32,SSE,159,0.0,2.7,59,0.00,,BKN050,0.31,VWS V14.00,2013-04-07 00:30:00,
2013-04-06 17:35:00,49.6,35.9,29.32,SSE,150,0.0,3.6,59,0.00,,BKN050,0.31,VWS V14.00,2013-04-07 00:35:00,
2013-04-06 17:41:00,49.3,35.1,29.32,SSE,161,2.7,2.7,58,0.00,,BKN050,0.31,VWS V14.00,2013-04-07 00:41:00,
2013-04-06 17:46:00,49.1,35.0,29.32,South,175,0.0,2.2,58,0.00,,BKN050,0.31,VWS V14.00,2013-04-07 00:46:00,
2013-04-06 17:52:00,48.6,34.0,29.32,East,94,4.0,4.0,57,0.00,,BKN050,0.31,VWS V14.00,2013-04-07 00:52:00,
2013-04-06 17:57:00,48.4,33.9,29.32,SSE,166,0.0,0.0,57,0.00,,BKN050,0.31,VWS V14.00,2013-04-07 00:57:00,
2013-04-06 18:03:00,47.5,31.7,29.32,SSE,167,3.6,4.0,54,0.00,, +RA,0.31,VWS V14.00,2013-04-07 01:03:00,
2013-04-06 18:09:00,46.8,30.5,29.32,South,170,0.0,2.7,53,0.00,, +RA,0.31,VWS V14.00,2013-04-07 01:09:00,
2013-04-06 18:15:00,46.2,30.0,29.32,WSW,250,3.6,3.6,53,0.00,, +RA,0.31,VWS V14.00,2013-04-07 01:15:00,
2013-04-06 18:21:00,46.0,29.9,29.32,SW,230,0.0,0.0,53,0.00,, +RA,0.31,VWS V14.00,2013-04-07 01:21:00,
2013-04-06 18:26:00,46.0,29.9,29.32,ESE,112,0.0,0.0,53,0.00,, +RA,0.31,VWS V14.00,2013-04-07 01:26:00,
2013-04-06 18:32:00,46.0,30.3,29.32,ESE,112,0.0,0.0,54,0.00,, +RA,0.31,VWS V14.00,2013-04-07 01:32:00,
2013-04-06 18:37:00,46.0,30.3,29.32,ENE,63,2.7,2.7,54,0.00,, +RA,0.31,VWS V14.00,2013-04-07 01:37:00,
2013-04-06 18:43:00,45.9,30.2,29.32,East,87,0.0,2.2,54,0.00,, +RA,0.31,VWS V14.00,2013-04-07 01:43:00,
2013-04-06 18:49:00,45.9,30.6,29.32,SE,136,0.0,3.1,55,0.00,, +RA,0.31,VWS V14.00,2013-04-07 01:49:00,
2013-04-06 18:54:00,45.9,30.6,29.32,NE,46,0.0,3.6,55,0.00,, +RA,0.31,VWS V14.00,2013-04-07 01:54:00,
2013-04-06 19:00:00,45.9,30.6,29.32,ENE,75,3.1,3.1,55,0.00,, +RA,0.31,VWS V14.00,2013-04-07 02:00:00,
2013-04-06 19:05:00,45.9,30.6,29.32,ESE,106,0.0,0.0,55,0.00,,BKN100,0.31,VWS V14.00,2013-04-07 02:05:00,
2013-04-06 19:10:00,45.9,31.1,29.32,East,92,0.0,0.0,56,0.00,,BKN100,0.31,VWS V14.00,2013-04-07 02:10:00,
2013-04-06 19:15:00,45.9,31.1,29.32,East,92,0.0,0.0,56,0.00,,BKN100,0.31,VWS V14.00,2013-04-07 02:15:00,
2013-04-06 19:21:00,45.9,31.1,29.32,East,92,0.0,0.0,56,0.00,,BKN100,0.31,VWS V14.00,2013-04-07 02:21:00,
2013-04-06 19:27:00,45.7,31.3,29.32,SSE,147,0.0,0.0,57,0.00,,BKN100,0.31,VWS V14.00,2013-04-07 02:27:00,
2013-04-06 19:32:00,45.7,31.3,29.32,NE,46,2.7,2.7,57,0.00,,BKN100,0.31,VWS V14.00,2013-04-07 02:32:00,
2013-04-06 19:38:00,45.5,31.2,29.32,NE,46,0.0,0.0,57,0.00,,BKN100,0.31,VWS V14.00,2013-04-07 02:38:00,
2013-04-06 19:43:00,45.5,31.2,29.32,SE,126,0.0,0.0,57,0.00,,BKN100,0.31,VWS V14.00,2013-04-07 02:43:00,
2013-04-06 19:49:00,45.5,31.6,29.32,SE,126,0.0,0.0,58,0.00,,BKN100,0.31,VWS V14.00,2013-04-07 02:49:00,
2013-04-06 19:54:00,45.5,31.6,29.32,NE,56,0.0,0.0,58,0.00,,BKN100,0.31,VWS V14.00,2013-04-07 02:54:00,
2013-04-06 20:00:00,45.5,32.0,29.32,ENE,60,0.0,0.0,59,0.00,,BKN100,0.31,VWS V14.00,2013-04-07 03:00:00,
2013-04-06 20:06:00,45.5,32.0,29.32,ENE,74,0.0,0.0,59,0.00,,OVC100,0.31,VWS V14.00,2013-04-07 03:06:00,
2013-04-06 20:11:00,45.5,32.0,29.32,ENE,74,0.0,0.0,59,0.00,,OVC100,0.31,VWS V14.00,2013-04-07 03:11:00,
2013-04-06 20:17:00,45.5,32.4,29.32,ENE,73,0.0,0.0,60,0.00,,OVC100,0.31,VWS V14.00,2013-04-07 03:17:00,
2013-04-06 20:23:00,45.5,32.4,29.32,East,80,0.0,0.0,60,0.00,,OVC100,0.31,VWS V14.00,2013-04-07 03:23:00,
2013-04-06 20:28:00,45.5,32.4,29.32,ENE,64,0.0,0.0,60,0.00,,OVC100,0.31,VWS V14.00,2013-04-07 03:28:00,
2013-04-06 20:34:00,45.5,32.4,29.32,ENE,64,0.0,0.0,60,0.00,,OVC100,0.31,VWS V14.00,2013-04-07 03:34:00,
2013-04-06 20:40:00,45.5,32.8,29.32,SSE,163,2.7,3.1,61,0.00,,OVC100,0.31,VWS V14.00,2013-04-07 03:40:00,
2013-04-06 20:45:00,45.3,32.7,29.32,SE,143,0.0,2.7,61,0.00,,OVC100,0.31,VWS V14.00,2013-04-07 03:45:00,
2013-04-06 20:51:00,45.3,32.7,29.32,ENE,67,0.0,0.0,61,0.00,,OVC100,0.31,VWS V14.00,2013-04-07 03:51:00,
2013-04-06 20:58:00,45.1,32.9,29.32,ENE,67,0.0,0.0,62,0.00,,OVC100,0.31,VWS V14.00,2013-04-07 03:58:00,
2013-04-06 21:00:00,45.1,32.9,29.32,ENE,67,0.0,0.0,62,0.00,,OVC100,0.31,VWS V14.00,2013-04-07 04:00:00,
2013-04-06 21:05:00,45.1,32.9,29.32,ENE,67,0.0,2.2,62,0.00,,OVC095,0.31,VWS V14.00,2013-04-07 04:05:00,
2013-04-06 21:11:00,45.0,32.7,29.32,ENE,67,0.0,0.0,62,0.00,,OVC095,0.31,VWS V14.00,2013-04-07 04:11:00,
2013-04-06 21:18:00,44.8,32.6,29.32,ENE,67,2.2,2.7,62,0.00,,OVC095,0.31,VWS V14.00,2013-04-07 04:18:00,
2013-04-06 21:23:00,44.8,33.0,29.32,ESE,120,0.0,0.0,63,0.00,,OVC095,0.31,VWS V14.00,2013-04-07 04:23:00,
2013-04-06 21:30:00,44.6,32.8,29.32,ESE,120,0.0,0.0,63,0.00,,OVC095,0.31,VWS V14.00,2013-04-07 04:30:00,
2013-04-06 21:35:00,44.6,32.8,29.32,ESE,120,0.0,0.0,63,0.00,,OVC095,0.31,VWS V14.00,2013-04-07 04:35:00,
2013-04-06 21:41:00,44.4,33.0,29.32,ESE,120,0.0,0.0,64,0.00,,OVC095,0.31,VWS V14.00,2013-04-07 04:41:00,
2013-04-06 21:47:00,44.2,32.8,29.32,ESE,120,0.0,0.0,64,0.00,,OVC095,0.31,VWS V14.00,2013-04-07 04:47:00,
2013-04-06 21:52:00,44.2,32.8,29.32,ESE,120,0.0,0.0,64,0.00,,OVC095,0.31,VWS V14.00,2013-04-07 04:52:00,
2013-04-06 21:58:00,44.2,32.8,29.32,ESE,120,0.0,0.0,64,0.00,,OVC095,0.31,VWS V14.00,2013-04-07 04:58:00,
2013-04-06 22:03:00,44.1,33.1,29.32,ESE,120,0.0,0.0,65,0.00,,OVC050,0.31,VWS V14.00,2013-04-07 05:03:00,
2013-04-06 22:08:00,44.1,33.1,29.32,ESE,120,0.0,0.0,65,0.00,,OVC050,0.31,VWS V14.00,2013-04-07 05:08:00,
2013-04-06 22:14:00,44.1,33.1,29.32,ESE,120,0.0,0.0,65,0.00,,OVC050,0.31,VWS V14.00,2013-04-07 05:14:00,
2013-04-06 22:20:00,43.9,32.9,29.32,ESE,120,0.0,0.0,65,0.00,,OVC050,0.31,VWS V14.00,2013-04-07 05:20:00,
2013-04-06 22:27:00,43.9,32.9,29.32,ESE,120,0.0,0.0,65,0.00,,OVC050,0.31,VWS V14.00,2013-04-07 05:27:00,
2013-04-06 22:33:00,43.7,32.7,29.32,ESE,120,0.0,0.0,65,0.00,,OVC050,0.31,VWS V14.00,2013-04-07 05:33:00,
2013-04-06 22:39:00,43.7,32.7,29.32,ESE,120,0.0,0.0,65,0.00,,OVC050,0.31,VWS V14.00,2013-04-07 05:39:00,
2013-04-06 22:44:00,43.7,33.1,29.32,ESE,120,0.0,0.0,66,0.00,,OVC050,0.31,VWS V14.00,2013-04-07 05:44:00,
2013-04-06 22:49:00,43.7,33.1,29.32,ESE,120,0.0,0.0,66,0.00,,OVC050,0.31,VWS V14.00,2013-04-07 05:49:00,
2013-04-06 22:54:00,43.7,33.1,29.32,ESE,120,0.0,0.0,66,0.00,,OVC050,0.31,VWS V14.00,2013-04-07 05:54:00,
2013-04-06 22:59:00,43.7,33.1,29.32,ESE,120,0.0,0.0,66,0.00,,OVC050,0.31,VWS V14.00,2013-04-07 05:59:00,
2013-04-06 23:04:00,43.7,33.1,29.32,ESE,120,0.0,0.0,66,0.00,,-RA,0.31,VWS V14.00,2013-04-07 06:04:00,
2013-04-06 23:09:00,43.7,33.1,29.32,ESE,120,0.0,0.0,66,0.00,,-RA,0.31,VWS V14.00,2013-04-07 06:09:00,
2013-04-06 23:14:00,43.5,32.9,29.32,ESE,120,0.0,0.0,66,0.00,,-RA,0.31,VWS V14.00,2013-04-07 06:14:00,
2013-04-06 23:20:00,43.5,32.9,29.32,ESE,120,0.0,0.0,66,0.00,,-RA,0.31,VWS V14.00,2013-04-07 06:20:00,
2013-04-06 23:26:00,43.5,33.3,29.32,ESE,120,0.0,0.0,67,0.00,,-RA,0.31,VWS V14.00,2013-04-07 06:26:00,
2013-04-06 23:31:00,43.5,33.3,29.32,ESE,120,0.0,0.0,67,0.00,,-RA,0.31,VWS V14.00,2013-04-07 06:31:00,
2013-04-06 23:37:00,43.3,33.1,29.32,ESE,120,0.0,0.0,67,0.00,,-RA,0.31,VWS V14.00,2013-04-07 06:37:00,
2013-04-06 23:42:00,43.3,33.1,29.32,ESE,120,0.0,0.0,67,0.00,,-RA,0.31,VWS V14.00,2013-04-07 06:42:00,
2013-04-06 23:48:00,43.3,33.1,29.32,ESE,120,0.0,0.0,67,0.00,,-RA,0.31,VWS V14.00,2013-04-07 06:48:00,
2013-04-06 23:53:00,43.3,33.1,29.32,ESE,120,0.0,0.0,67,0.00,,-RA,0.31,VWS V14.00,2013-04-07 06:53:00,